FW6369 Weather Reports


Display with metric or nautical units.
time (UTC)temp
F
wind
direction
speed
MPH
gust
MPH
rain 1hr
in
rain 24hr
in
rain mn
in
humidity
%
barometer
mb
20260902190057 67 0 1.0 7.0 0.00 0.00 0.00 79 1017.9
20260902184601 65 0 0.0 0.0 0.00 0.00 0.00 84 1018.0
20260902183111 65 0 0.0 0.0 0.00 0.00 0.00 86 1017.7
20260902181554 64 0 0.0 0.0 0.00 0.00 0.00 95 1017.8
20260902174604 63 0 0.0 0.0 0.00 0.00 0.00 95 1017.7
20260902173056 63 0 0.0 0.0 0.00 0.00 0.00 97 1017.5
20260902171605 62 0 0.0 0.0 0.00 0.00 0.00 97 1017.4
20260902164558 61 0 0.0 0.0 0.00 0.00 0.00 96 1017.1
20260902163119 61 0 0.0 0.0 0.00 0.00 0.00 97 1017.0
20260902161602 61 0 0.0 0.0 0.00 0.00 0.00 97 1016.8
20260902160100 60 0 0.0 0.0 0.00 0.00 0.00 97 1017.0
20260902154557 60 0 0.0 0.0 0.00 0.00 0.00 97 1017.1
20260902153104 60 0 0.0 1.0 0.00 0.00 0.00 96 1017.1
20260902151557 60 53 0.0 1.0 0.00 0.00 0.00 96 1016.9
20260902150101 60 0 0.0 1.0 0.00 0.00 0.00 96 1016.8
20260902144556 60 0 0.0 0.0 0.00 0.00 0.00 96 1016.7
20260902143100 59 0 0.0 0.0 0.00 0.00 0.00 96 1016.5
20260902141554 59 0 0.0 1.0 0.00 0.00 0.00 96 1016.2
20260902140054 59 0 0.0 1.0 0.00 0.00 0.00 96 1016.2
20260902134600 59 0 0.0 1.0 0.00 0.00 0.00 95 1016.0
20260902133108 59 0 0.0 1.0 0.00 0.00 0.00 95 1016.0
20260902131604 59 0 0.0 0.0 0.00 0.00 0.00 95 1015.7
20260902130057 59 0 0.0 2.0 0.00 0.00 0.00 95 1015.6
20260902124553 59 0 0.0 0.0 0.00 0.00 0.00 94 1015.6
20260902123120 60 79 0.0 1.0 0.00 0.00 0.00 94 1015.7
20260902121600 60 0 0.0 1.0 0.00 0.00 0.00 93 1015.8
20260902120107 60 79 0.0 2.0 0.00 0.00 0.00 93 1015.7
20260902114554 59 0 0.0 1.0 0.00 0.00 0.00 93 1015.8
20260902113052 59 0 0.0 1.0 0.00 0.00 0.00 93 1015.7
20260902111604 59 0 0.0 1.0 0.00 0.00 0.00 93 1015.7
20260902110057 59 0 0.0 1.0 0.00 0.00 0.00 93 1015.8
20260902104553 60 0 0.0 0.0 0.00 0.00 0.00 92 1015.8
20260902103052 60 0 0.0 0.0 0.00 0.00 0.00 90 1016.0
20260902101556 60 0 0.0 1.0 0.00 0.00 0.00 88 1016.1
20260902100104 60 0 0.0 1.0 0.00 0.00 0.00 88 1016.1
20260902094556 60 0 0.0 0.0 0.00 0.00 0.00 88 1016.2
20260902093058 60 0 0.0 0.0 0.00 0.00 0.00 88 1016.2
20260902091610 60 0 0.0 0.0 0.00 0.00 0.00 88 1016.3
20260902084556 60 0 0.0 0.0 0.00 0.00 0.00 89 1016.6
20260902083126 60 0 0.0 0.0 0.00 0.00 0.00 89 1016.6
20260902081555 60 0 0.0 1.0 0.00 0.00 0.00 89 1016.6
20260902080058 60 0 0.0 1.0 0.00 0.00 0.00 89 1016.6
20260902074559 60 0 0.0 1.0 0.00 0.00 0.00 90 1016.5
20260902073058 59 0 0.0 1.0 0.00 0.00 0.00 90 1016.5
20260902071557 59 0 0.0 0.0 0.00 0.00 0.00 90 1016.4
20260902070101 59 0 0.0 0.0 0.00 0.00 0.00 90 1016.5
20260902064554 59 0 0.0 0.0 0.00 0.00 0.00 91 1016.5
20260902063104 58 0 0.0 0.0 0.00 0.00 0.00 91 1016.5
20260902061601 58 0 0.0 0.0 0.00 0.00 0.00 90 1016.6
20260902054557 59 0 0.0 0.0 0.00 0.00 0.00 89 1016.5
20260902053058 60 0 0.0 1.0 0.00 0.00 0.00 88 1016.6
20260902051606 60 0 0.0 0.0 0.00 0.00 0.00 88 1016.5
20260902050104 60 0 0.0 1.0 0.00 0.00 0.00 87 1016.6
20260902044602 60 0 0.0 0.0 0.00 0.00 0.00 84 1016.5
20260902043055 60 0 0.0 1.0 0.00 0.00 0.00 83 1016.4
20260902041601 61 0 0.0 0.0 0.00 0.00 0.00 82 1016.4
20260902040059 62 0 0.0 0.0 0.00 0.00 0.00 82 1016.2
20260902034600 62 0 0.0 0.0 0.00 0.00 0.00 82 1016.1
20260902033059 62 0 0.0 1.0 0.00 0.00 0.00 81 1016.1
20260902031606 62 0 0.0 0.0 0.00 0.00 0.00 79 1016.1
20260902030057 62 0 0.0 1.0 0.00 0.00 0.00 78 1015.8
20260902024559 63 0 0.0 1.0 0.00 0.00 0.00 76 1015.8
20260902023054 64 252 0.0 2.0 0.00 0.00 0.00 75 1016.0
20260902021613 65 0 0.0 2.0 0.00 0.00 0.00 73 1015.9
20260902020057 66 244 1.0 4.0 0.00 0.00 0.00 71 1015.7
20260902014557 67 236 1.0 5.0 0.00 0.00 0.00 69 1015.9
20260902013100 67 263 1.0 6.0 0.00 0.00 0.00 68 1015.8
20260902011556 68 252 0.0 8.0 0.00 0.00 0.00 67 1015.8
20260902010101 69 94 1.0 6.0 0.00 0.00 0.00 65 1015.7
20260902004558 68 252 1.0 8.0 0.00 0.00 0.00 65 1015.6
20260902003108 68 113 1.0 7.0 0.00 0.00 0.00 64 1015.6
20260902001556 69 230 1.0 5.0 0.00 0.00 0.00 63 1015.5
20260902000105 70 246 1.0 5.0 0.00 0.00 0.00 64 1015.4
20260901234559 71 261 0.0 4.0 0.00 0.00 0.00 62 1015.3
20260901233104 71 241 0.0 9.0 0.00 0.00 0.00 61 1015.4
20260901231604 72 123 0.0 7.0 0.00 0.00 0.00 61 1015.4
20260901230107 71 254 0.0 7.0 0.00 0.00 0.00 60 1015.3
20260901224559 70 244 2.0 7.0 0.00 0.00 0.00 59 1015.4
20260901223106 70 235 2.0 5.0 0.00 0.00 0.00 60 1015.5
20260901221557 70 257 1.0 6.0 0.00 0.00 0.00 58 1015.6
20260901220118 72 259 1.0 7.0 0.00 0.00 0.00 57 1015.4
20260901214601 73 273 1.0 6.0 0.00 0.00 0.00 57 1015.4
20260901213108 73 262 1.0 5.0 0.00 0.00 0.00 57 1015.4
20260901211558 71 261 1.0 10.0 0.00 0.00 0.00 60 1015.4
20260901204558 73 88 0.0 4.0 0.00 0.00 0.00 60 1015.4
20260901203056 71 0 0.0 5.0 0.00 0.00 0.00 62 1015.6
20260901201603 71 0 0.0 3.0 0.00 0.00 0.00 61 1015.7
20260901200055 73 239 0.0 2.0 0.00 0.00 0.00 59 1015.8
20260901194556 70 84 0.0 2.0 0.00 0.00 0.00 66 1015.8
20260901193058 69 0 0.0 3.0 0.00 0.00 0.00 65 1015.9
20260901191614 68 279 0.0 4.0 0.00 0.00 0.00 69 1016.1